SCP
0 0 0 0 0 0 0 0 0 0 0 0 0 0 0 0 0 0 0 0 0 0 0 0 0 0 0 0 0 0 0 0 0 0 0 0 0 0 0 0 1 1 1 2 2 2 2 2 2
0 0 0 0 0 0 0 0 0 0 0 0 0 0 0 0 0 0 0 0 0 0 0 0 0 0 0 0 0 0 0 0 0 0 0 0 0 0 0 1 1 1 1 1 2 2 2 2 2
0 0 0 0 0 0 0 0 0 0 0 0 0 0 0 0 0 0 0 0 0 0 0 0 0 0 0 0 0 0 0 0 0 0 0 0 0 0 1 1 1 1 1 1 1 1 2 2 2
0 0 0 0 0 0 0 0 0 0 0 0 0 0 0 0 0 0 0 0 0 0 0 0 0 0 0 0 1 1 0 0 0 0 0 0 0 1 1 1 1 1 1 1 1 1 2 2 2
0 0 0 0 0 0 0 0 0 0 0 0 0 0 0 0 0 0 0 0 0 0 0 0 0 0 0 0 0 1 1 1 0 0 0 0 1 1 1 1 1 1 1 1 1 1 2 2 3
0 0 0 0 0 0 0 0 0 0 0 0 0 0 0 0 0 0 0 0 0 0 0 0 0 0 0 0 0 0 0 1 1 1 0 0 1 1 1 1 1 1 1 1 1 1 2 3 4
0 0 0 0 0 0 0 0 0 0 0 0 0 0 0 0 0 0 0 0 0 0 0 0 0 0 0 0 0 0 0 0 1 1 1 1 1 1 1 1 1 1 1 1 1 1 3 5 6
0 0 0 0 0 0 0 0 0 0 0 0 0 0 0 0 0 0 0 0 0 0 0 0 0 0 0 0 0 0 0 0 0 1 1 1 1 1 1 1 1 1 1 1 1 2 4 6 6
0 0 0 0 0 0 0 0 0 0 0 0 0 0 0 0 0 0 0 0 0 0 0 0 0 0 0 0 0 0 0 0 0 1 1 1 1 0 1 1 1 1 1 1 1 2 4 5 4
0 0 0 0 0 0 0 0 0 0 0 0 0 0 0 1 1 1 0 0 0 0 0 0 0 0 0 0 0 0 0 0 0 0 1 1 1 1 1 1 1 1 1 1 1 1 2 2 2
0 0 0 0 0 0 0 0 0 0 0 0 0 0 0 1 1 1 0 0 0 0 0 0 0 0 0 0 0 0 0 0 0 0 0 0 1 1 1 1 1 1 0 0 0 0 1 1 1
0 0 0 0 0 0 0 0 0 0 0 0 0 0 1 1 1 1 0 0 0 0 0 0 0 0 0 0 0 0 0 0 0 0 0 0 0 0 1 1 1 1 0 0 0 0 0 0 0
0 0 0 0 0 0 0 0 0 0 0 0 0 0 1 1 0 0 0 0 0 0 0 0 0 0 0 0 0 0 0 0 0 0 0 0 0 0 0 1 1 1 1 1 0 0 0 0 0
0 0 0 0 0 0 0 0 0 0 0 0 0 0 1 1 0 0 0 0 0 1 1 1 0 0 0 0 0 0 0 0 1 1 0 0 0 0 0 0 1 1 1 1 1 0 0 0 0
0 0 0 0 0 0 0 0 0 0 0 0 1 1 1 1 1 1 1 1 1 1 1 1 1 1 0 0 0 0 0 1 1 1 1 0 0 0 0 0 0 1 1 1 1 0 0 0 0
0 0 0 0 0 0 0 0 0 0 0 1 1 1 1 1 1 1 1 1 1 1 1 1 1 1 1 1 0 0 0 1 1 1 1 1 0 0 0 0 0 0 1 1 1 1 1 1 1
0 0 0 0 0 0 0 0 0 0 0 0 1 1 1 1 1 1 1 1 1 1 1 1 1 1 1 1 1 1 1 1 1 1 1 1 0 0 0 0 0 0 1 1 1 1 1 1 1
0 0 0 0 0 0 0 0 0 0 0 0 0 0 1 1 1 1 1 1 1 0 1 1 1 1 1 1 1 1 1 1 2 2 2 1 1 1 0 0 0 0 0 1 1 1 1 1 1
0 0 0 0 0 0 0 0 0 0 0 0 0 0 0 1 1 1 1 1 1 0 0 1 1 1 1 1 2 2 2 2 2 2 2 2 1 1 0 0 0 1 1 0 1 1 1 1 1
0 0 0 0 0 0 0 0 0 0 0 0 0 0 0 0 0 1 1 1 1 1 1 1 1 1 1 1 2 2 3 3 3 2 2 1 1 1 1 1 0 1 0 0 0 0 1 0 0
0 0 0 0 0 0 0 0 0 0 0 0 0 0 0 0 0 1 1 1 1 1 1 1 1 1 1 1 1 2 3 4 3 3 2 1 1 1 1 1 0 0 0 0 0 0 0 0 0
0 0 0 0 0 0 0 0 0 0 0 0 0 0 0 0 0 1 1 1 1 1 1 1 1 1 1 1 1 2 3 3 3 3 2 2 1 1 1 1 0 0 0 0 0 0 0 0 0
0 0 0 0 0 0 0 0 0 0 0 0 0 0 0 0 0 0 0 1 1 1 1 1 1 1 1 1 2 2 2 3 2 2 2 2 1 0 1 1 0 0 0 0 0 0 0 0 1
0 0 0 0 0 0 0 0 0 0 0 0 0 0 0 0 0 0 1 0 1 1 1 2 1 1 1 1 1 2 2 2 2 2 2 2 1 0 0 0 0 0 0 1 1 1 1 1 1
0 0 0 0 0 0 0 0 0 0 0 0 0 0 0 0 0 1 1 1 1 1 1 2 2 1 1 1 1 1 1 2 2 2 2 1 1 0 0 0 0 0 0 1 1 1 1 1 1
0 0 0 0 0 0 0 0 0 0 0 0 0 0 0 0 0 0 1 1 1 1 1 1 1 1 1 1 1 1 1 2 2 2 2 1 1 0 0 0 0 0 0 0 1 1 1 1 1
0 0 0 0 0 0 0 0 0 0 0 0 0 0 0 0 0 0 1 1 2 2 1 1 1 2 2 1 2 2 2 2 2 2 2 1 1 1 0 0 0 0 0 0 0 1 1 1 1
1 0 0 0 0 0 0 0 0 0 0 0 0 0 0 0 0 0 0 1 2 2 2 2 2 2 2 2 2 2 2 2 2 2 1 1 1 1 0 0 0 0 0 0 0 0 1 1 1
1 0 0 0 0 0 0 0 0 0 0 0 0 0 0 0 0 0 0 0 1 2 2 2 2 2 2 2 2 2 2 2 2 2 1 1 1 1 0 0 0 0 0 0 0 0 0 1 1
0 0 0 0 0 0 0 0 0 0 0 0 0 0 0 0 0 0 0 0 0 1 2 3 3 3 3 3 2 2 1 1 2 2 2 1 1 1 0 0 0 0 0 0 1 0 0 0 1
Wind_Speed
3 1 2 3 3 3 7 6 4 4 5 5 5 5 5 6 6 6 4 3 4 4 4 5 7 8 8 8 8 8 8 9 9 9 9 9 10 10 10 10 11 11 12 11 11 11 11 11 11
1 1 3 3 1 4 7 5 5 6 6 5 4 4 5 7 6 6 5 4 3 4 5 7 8 7 8 8 8 8 8 8 9 9 9 9 10 10 11 10 11 11 11 11 12 11 11 11 11
1 2 2 1 3 5 6 5 6 6 5 2 3 4 5 6 5 5 5 5 4 5 5 8 7 7 8 8 8 8 8 8 9 9 9 9 10 10 10 11 11 11 11 11 11 11 11 11 12
2 2 1 2 8 8 6 5 5 6 4 3 3 5 6 5 4 6 6 5 5 5 5 8 6 7 7 8 8 9 9 9 9 9 9 10 10 10 10 10 11 11 12 11 11 11 11 11 11
2 2 3 6 8 7 5 5 4 4 4 3 3 6 7 6 6 7 6 5 5 5 5 7 7 7 7 8 8 8 9 9 9 9 9 10 10 10 10 11 11 12 12 12 11 10 11 12 12
1 1 3 6 8 6 5 4 4 4 5 4 4 5 6 6 6 6 5 5 5 5 5 6 7 7 7 8 9 9 9 9 10 10 9 10 10 10 11 11 12 12 12 12 12 11 12 13 12
1 1 4 7 7 6 4 3 2 4 5 4 2 4 6 7 6 6 5 5 5 4 5 5 5 6 7 8 8 9 9 9 10 10 10 10 10 10 11 11 12 12 12 12 13 14 15 15 13
1 2 6 5 5 6 4 3 2 2 5 4 2 3 5 7 7 6 5 5 4 4 4 5 5 5 5 7 8 8 9 9 9 9 9 9 10 10 10 11 12 12 12 13 14 15 16 15 14
2 2 4 5 4 5 4 4 4 2 5 4 3 3 6 9 9 7 6 5 4 4 3 4 4 5 5 6 6 6 7 6 5 7 7 5 6 8 8 12 12 12 13 13 14 14 14 13 13
1 2 4 3 2 4 4 3 4 4 4 4 5 6 7 9 8 7 5 4 4 4 4 4 4 4 5 4 4 4 4 4 4 5 6 5 6 7 7 12 12 12 12 12 12 11 9 6 7
2 3 4 3 2 2 3 3 2 2 3 3 5 8 9 8 7 5 4 3 3 4 4 3 4 4 4 3 3 3 3 3 4 5 5 5 5 5 5 4 6 6 6 6 7 6 5 6 6
3 3 2 2 2 2 2 2 2 1 2 3 4 8 8 7 6 4 3 2 3 3 3 3 3 3 4 4 3 3 3 3 3 3 5 4 3 3 4 3 4 4 4 5 4 4 6 7 7
3 3 2 2 2 2 2 2 1 2 2 4 7 8 7 6 5 4 3 2 3 3 3 3 2 2 3 4 2 3 3 3 4 3 3 4 3 4 4 4 4 4 4 4 4 5 6 6 7
3 3 2 2 2 2 2 1 1 2 3 6 7 7 6 5 4 4 3 3 3 2 3 3 2 2 2 2 2 3 3 3 3 3 4 4 3 4 4 4 4 4 4 4 4 5 5 5 5
3 3 3 2 2 2 3 2 1 2 4 6 6 6 5 4 4 3 2 2 2 2 3 3 2 2 2 3 3 2 2 3 3 3 3 4 4 4 4 4 4 4 4 4 4 5 4 5 5
4 3 3 2 1 1 4 1 4 2 4 5 5 5 4 4 4 2 2 2 2 2 3 4 2 3 3 2 2 2 2 2 2 2 2 4 4 4 4 3 3 4 3 3 3 3 4 4 4
4 2 1 2 1 1 3 1 3 2 4 4 4 4 4 4 3 2 1 1 2 2 2 3 3 2 3 3 2 2 2 2 2 2 2 2 3 3 3 3 3 4 3 3 3 3 3 4 4
2 2 1 1 1 2 3 2 0 2 3 4 4 4 3 3 2 2 2 2 2 2 2 2 3 2 3 2 2 2 2 2 2 2 2 3 2 3 3 3 3 3 3 2 2 3 3 3 3
2 3 2 0 0 3 3 3 1 2 4 4 4 4 3 3 2 2 2 2 2 2 2 3 3 3 2 2 2 2 2 2 2 2 3 2 2 2 2 2 3 3 2 2 2 2 3 2 2
4 3 1 1 1 3 3 3 1 1 3 3 3 4 3 3 3 3 3 3 2 2 2 2 3 3 3 2 2 1 2 2 2 2 2 2 2 2 2 2 2 3 2 3 3 2 1 2 1
4 3 2 2 1 4 4 3 4 4 3 3 3 2 2 2 2 3 3 3 3 2 2 2 3 3 3 3 2 2 2 2 3 2 2 1 2 1 1 2 2 2 3 2 3 3 2 2 1
3 1 3 4 5 2 4 3 3 3 4 3 4 4 3 3 2 2 2 3 3 3 2 3 3 3 3 3 3 4 3 2 2 2 2 2 1 1 1 1 2 2 2 2 3 3 2 2 2
2 1 3 5 6 5 4 5 2 3 3 3 3 4 3 3 2 2 2 2 2 2 2 2 3 3 3 3 3 3 3 2 2 2 3 2 2 1 1 1 1 1 2 2 2 2 2 2 1
2 3 4 5 6 6 3 5 2 2 1 1 3 4 3 3 3 2 2 2 2 2 2 3 3 3 3 3 3 4 3 3 3 3 2 2 2 1 1 1 1 1 1 2 2 3 3 3 2
4 5 4 5 5 2 1 4 2 2 1 1 1 2 3 3 3 3 3 3 2 3 3 3 3 3 3 4 4 4 4 4 3 3 3 2 2 1 1 1 2 1 1 1 2 3 3 3 3
4 6 4 4 3 1 3 4 1 2 1 0 1 2 2 3 3 2 2 3 3 4 4 4 5 4 4 4 4 4 4 3 2 3 3 3 2 2 2 2 2 2 1 2 2 2 2 3 3
4 4 3 5 5 5 3 2 1 2 1 2 2 2 2 2 3 2 2 3 3 4 4 5 6 5 5 4 4 4 4 4 3 4 3 2 2 2 2 2 3 2 1 2 2 2 2 3 3
3 2 4 5 5 6 4 4 2 2 2 1 1 1 1 1 2 2 2 2 3 3 4 4 5 5 5 5 4 3 4 4 4 3 3 3 3 3 3 3 3 2 2 2 2 2 2 3 2
4 4 4 4 5 6 5 1 1 1 2 2 2 2 1 2 2 2 2 2 1 2 3 4 4 5 4 5 5 4 4 4 4 3 4 3 3 4 4 3 3 3 2 2 2 3 3 3 3
4 4 5 6 5 6 6 3 2 1 1 2 2 1 1 1 2 2 2 2 1 1 2 2 3 4 4 4 4 5 4 4 4 4 4 4 4 3 4 3 3 3 3 3 3 3 3 3 3
Wind_Direction
188 215 245 244 218 107 82 83 88 94 73 63 60 60 61 44 27 63 79 68 59 64 59 66 48 44 44 45 47 56 62 62 63 64 64 65 64 64 67 71 72 75 79 81 85 87 90 91 91
264 252 247 249 239 107 89 90 90 77 93 101 83 75 73 69 59 83 97 84 78 70 60 56 47 42 43 46 49 56 60 62 64 65 65 65 64 64 66 72 74 76 79 81 84 87 89 89 90
179 263 278 258 62 69 92 89 94 98 109 109 91 63 53 70 80 89 92 103 92 74 65 65 45 42 43 47 52 56 62 63 64 65 65 64 64 67 68 71 72 75 79 80 83 88 90 91 91
235 220 219 91 85 72 86 106 117 125 114 84 102 95 81 67 77 94 106 106 92 82 71 70 48 45 46 50 55 59 63 65 63 64 66 67 66 69 72 70 71 76 79 78 81 87 92 94 93
245 250 129 102 88 84 86 96 122 110 101 94 96 96 95 91 97 107 111 103 89 82 74 75 61 52 52 56 63 62 64 66 68 68 68 68 68 69 73 72 73 76 79 78 80 86 95 95 91
230 224 130 106 99 96 96 111 121 100 99 107 107 101 94 114 119 115 112 104 86 77 74 81 88 67 60 59 63 65 67 68 67 69 70 69 68 70 73 75 77 79 80 78 75 76 91 95 90
345 103 101 108 112 107 99 114 107 106 107 99 107 104 114 130 126 126 119 106 94 85 76 72 81 93 92 71 61 64 68 69 68 69 71 70 70 71 75 76 76 78 80 79 74 78 90 89 87
333 141 122 114 116 100 102 122 93 84 91 101 130 106 119 135 138 136 124 112 100 89 80 76 73 73 83 93 77 70 70 69 72 73 75 79 83 82 80 80 76 78 81 81 79 79 83 83 82
253 163 121 114 116 107 125 131 111 103 116 121 107 70 100 132 146 146 137 131 115 99 85 75 74 76 75 78 91 96 91 80 94 94 91 92 84 82 82 73 76 78 79 79 79 79 83 86 85
240 120 95 90 98 114 133 127 131 151 136 133 129 120 130 148 156 154 148 131 116 106 93 81 79 79 82 80 87 78 84 85 76 80 86 81 79 75 77 83 78 78 82 83 79 80 87 88 89
87 89 96 106 109 128 137 126 136 150 115 113 136 140 146 154 156 156 143 116 102 100 97 84 85 85 82 89 79 74 75 80 78 80 90 87 89 96 85 86 97 94 93 87 90 90 76 75 72
109 94 101 101 117 159 134 118 116 60 55 73 118 134 146 153 152 152 137 116 112 102 98 92 87 93 86 86 85 82 85 82 79 79 85 89 87 87 89 85 81 83 84 83 80 78 82 78 76
121 109 102 116 145 142 117 125 114 80 78 110 126 139 148 152 152 151 146 142 134 130 124 108 97 86 87 80 75 78 76 75 86 81 82 89 94 95 94 89 81 81 85 90 83 81 79 77 73
104 116 112 126 144 151 146 126 160 80 125 137 142 149 155 158 162 164 166 162 146 145 137 120 115 103 97 96 90 80 82 86 80 83 82 86 87 90 94 95 93 87 81 80 86 86 83 79 76
156 158 137 111 139 152 200 159 141 84 150 152 151 150 156 165 177 187 183 174 157 147 141 124 122 115 111 98 82 84 88 92 87 85 82 86 89 92 97 94 97 97 97 96 88 88 85 85 83
188 194 165 107 142 153 234 165 84 113 165 162 156 154 165 173 187 186 187 182 155 144 135 130 142 143 121 103 103 103 105 102 97 88 81 85 95 94 92 92 95 101 102 99 97 97 95 89 84
197 203 171 138 142 203 233 273 91 131 179 178 174 171 172 167 172 157 157 156 146 150 145 142 143 145 129 116 115 99 106 107 97 91 85 83 88 101 106 99 106 105 106 104 106 97 93 93 89
216 245 214 155 119 218 228 255 110 157 196 197 187 182 175 170 153 137 140 144 147 152 158 146 145 152 132 135 129 115 110 109 93 90 103 95 99 109 115 132 129 121 120 116 121 114 103 94 97
262 256 261 7 102 250 250 272 292 186 202 204 194 191 182 163 138 132 137 141 152 153 161 151 156 154 150 143 144 136 129 117 103 94 93 99 103 117 126 145 141 140 133 138 140 127 123 120 131
225 240 260 124 119 255 270 275 258 157 181 199 195 187 181 168 152 147 154 148 150 149 164 168 160 158 157 157 159 150 123 117 107 103 96 97 122 136 156 170 157 154 148 161 156 152 149 147 214
226 259 284 293 248 217 262 227 179 142 152 166 191 197 186 181 177 161 169 163 161 161 171 176 171 161 165 164 155 138 123 138 139 127 112 100 119 144 170 168 183 176 178 176 184 185 193 178 180
236 271 265 255 256 240 264 271 175 165 163 168 181 189 191 177 171 168 177 178 172 174 180 181 173 167 166 165 168 162 165 165 157 143 137 136 130 145 140 157 194 189 185 186 198 203 207 207 187
293 300 252 251 259 257 235 263 180 165 194 167 167 180 187 183 178 184 185 191 182 167 174 182 173 171 172 176 175 191 182 175 153 149 149 151 145 145 145 172 199 203 202 206 203 206 223 222 230
180 202 202 221 240 243 239 261 235 160 260 171 163 172 180 178 180 189 183 189 185 175 177 180 177 174 179 192 192 195 183 184 175 176 166 169 158 169 162 204 205 220 228 222 213 215 215 234 239
223 252 238 218 218 230 138 257 267 54 18 319 205 180 171 175 182 183 187 194 196 193 186 186 183 183 186 198 206 201 197 200 202 194 186 197 184 186 204 224 218 214 233 238 233 232 231 225 226
232 257 276 280 279 275 214 246 60 54 19 256 211 186 171 179 189 192 200 209 206 202 201 195 194 192 191 202 215 214 200 205 210 213 204 205 202 196 208 228 232 230 230 241 234 249 244 243 233
226 229 289 282 277 265 228 216 200 152 166 141 144 163 172 189 197 199 201 214 213 204 203 205 201 199 195 205 215 215 204 206 207 213 208 207 211 207 216 223 221 223 224 243 243 251 248 250 249
285 213 217 248 271 266 247 248 252 183 205 183 186 200 190 200 200 197 196 209 214 208 208 210 210 205 200 205 210 211 208 205 212 213 212 214 214 215 219 226 223 220 218 232 246 255 261 246 230
186 202 231 243 267 282 278 263 61 283 265 249 238 229 229 225 211 198 195 191 205 209 208 210 211 212 207 208 209 205 205 204 204 212 219 222 224 219 223 228 231 226 230 235 233 248 245 247 231
245 244 240 255 248 256 280 286 80 267 273 276 273 242 223 206 183 171 170 161 179 203 217 220 217 210 208 213 211 207 200 201 206 209 213 216 218 222 228 227 227 221 230 242 242 243 245 247 250